COSMOS 2491 DEB, 44998

Orbit data source: Space-Track

COSMOS 2491 DEB, 44998 is space debris in LEO originally from a launch on Wed, 25 Dec 2013 UTC launched from the Plesetsk Missile And Space Complex (PKMTR). Debris objects in space refer to the collection of defunct objects orbiting the Earth. Examples of debris include non-operational satellites, rocket bodies, and fragments generated from explosions, collisions, or faulty payload assembly.

Loading next visibility...
Identifier
44998, 2013-076S
Orbit
LEO
Country
Flag of CISCIS
Related business
Manufacturer
TsNIIKhM
Mission
Spacecraft
Bus & Motor
Unknown
Mass
Unknown
Launch date (UTC)
2013-12-25 (12 years ago)
Launch vehicle
Unknown
Launch site
Plesetsk Missile And Space Complex (PKMTR)
Object type
Payload
Rocket body
Debris
Shape & HBR
Unknown shape, 0.1 m
Radar Cross Section
Small (<0.1 m²)

Expand to show TLE details & history
Last TLE update: 5 days ago

TLE from 5 days ago
0 COSMOS 2491 DEB
1 44998U 13076S   26168.13632413 -.00000296  00000-0 -15756-2 0  9992
2 44998  82.4780 110.8647 0083688 141.0877 219.6281 12.67774379297283
Epoch: 2026-06-17T03:16Z
TLE epoch observation values (Epoch: 2026-06-17T03:16:18.404Z)
Latitude
-0.00008°
Longitude
156.38967°
Altitude
1,444.06 km
Speed
7.117 km/s
True Right ascension
07h 23m 27s
True Declination
0° 00' 00"
Sunlit
Object was in daylight at epoch
Visualization orbit readout
Latitude
Unknown
Longitude
Unknown
Altitude
Unknown
Speed
Unknown
Apparent Right ascension
Unknown
Apparent Declination
Unknown
Sunlit
N/A
Visualization observer readout
Local Sidereal Time
21:53:56
Azimuth
Unknown
Elevation
Unknown
Doppler factor
Unknown
Orbital elements
Apogee altitude
1,453.332 km
Perigee altitude
1,323.34 km
Semi-major axis
7,766.473 km
Eccentricity
0.00837
Inclination
82.478°
RAAN
110.8647°
Arg. of periapsis
141.0877°
True anomaly
219.02135°
Mean anomaly
219.6281°
Eccentric anomaly
219.32424°
Mean motion
3.17108 °/min
Orbital period
113.53 mins
BSTAR
-0.0015756
Loading maneuver chart data...
Computing Atmospheric mass density...
Loading historical data...
Loading historical data...
Loading historical data...
Loading historical data...
Loading historical data...
Loading historical data...
Loading historical data...

Documentation

Showing up to 5 results
|